User: anonymous   Login
Location: Huntsville
(41.2590°N, 111.7678°W)
Time: 11:07:11
(UTC+00:00)
Language:

Tiros 1 - Orbit

View from above orbital plane
View from above orbital plane
View from above satellite
View from above satellite

Ground track
Ground track

The orbit data is extracted from the following two-line orbital elements,

1    29U 60002B   21165.08660569 -.00000115  00000-0  13935-4 0  9997
2    29  48.3810  41.8670 0024269 338.8254  21.1651 14.74433502272021
Epoch (UTC): 14 June 2021 02:04:42
Eccentricity: 0.0024269
inclination: 48.3810°
perigee height: 630 km
apogee height: 664 km
right ascension of ascending node: 41.8670°
argument of perigee: 338.8254°
revolutions per day: 14.74433502
mean anomaly at epoch: 21.1651°
orbit number at epoch: 27202

The dashed part of the orbit path shows where the satellite is in the earth's shadow,  

DLR